Weather Roundup
Issued by NWS Springfield, MO

Home | Current Version | Previous Version | Text Only | Print | Product List | Glossary On
Versions: 1 2 3 4 5 6 7 8 9 10 11 12 13 14 15 16 17 18 19 20 21 22 23 24 25 26 27 28 29 30 31 32 33 34 35 36 37 38 39 40 41 42 43 44 45 46 47 48 49 50
000
NZUS99 KSGF 180607
HRRSGF

HOURLY WEATHER
NATIONAL WEATHER SERVICE SPRINGFIELD MO
100 AM CDT SAT APR 18 2015

......SGF CWA......

CITY           SKY/WX    TMP DP  RH WIND       PRES   REMARKS
SPRINGFIELD    FAIR      65  59  81 SE9       29.99S
6HR MIN TEMP:  64; 6HR MAX TEMP:  73;

JOPLIN         FAIR      63  60  90 SE5       29.97R
6HR MIN TEMP:  62; 6HR MAX TEMP:  73;

WEST PLAINS    MOCLDY    63  59  87 CALM      30.04S
6HR MIN TEMP:  61; 6HR MAX TEMP:  73;

ROLLA          FAIR      65  55  70 SE10      30.01R
6HR MIN TEMP:  64; 6HR MAX TEMP:  75; 6HR PCP: TRACE;

OSAGE BEACH    FAIR      64  54  68 SE5       29.99S
BRANSON        FAIR      63  59  88 CALM      30.02S

......SURROUNDING SGF CWA......

CITY           SKY/WX    TMP DP  RH WIND       PRES   REMARKS
CHANUTE        FAIR      62  60  93 E3        29.96S
PARSONS        FAIR      63  62  97 CALM      29.97R
COFFEYVILLE    FAIR      63  61  93 CALM      29.96R
EMPORIA        FAIR      60  58  92 S5        29.96S
GROVE OK       FAIR      64  61  88 E5        29.98S
ROGERS AR      FAIR      62  61  96 E7        30.01S
SILOAM SPRINGS FAIR      64  55  72 E6        30.00R
HARRISON AR    FAIR      59  59 100 SE6       30.02S
NEAR YELLVILLE FAIR      61 N/A N/A CALM      29.99F

......KANSAS AND MISSOURI......

CITY           SKY/WX    TMP DP  RH WIND       PRES   REMARKS
KANSAS CTY INT CLOUDY    64  57  78 E8        29.97F
DOWNTOWN KC    FAIR      65  58  78 NE3       29.96F
COLUMBIA       FAIR      66  56  70 E7        29.99F
SEDALIA        FAIR      66  55  67 E3        29.98F
ST JOSEPH      FAIR      61  56  83 CALM      29.98S
ST LOUIS       FAIR      66  55  67 S3        30.03R
SPIRIT OF STL  FAIR      59  55  87 CALM      30.01S
KIRKSVILLE     FAIR      64  55  72 SE6       30.01F
WICHITA        CLOUDY    64  58  80 E5        29.95S
TOPEKA         FAIR      58  56  93 CALM      29.96S
OLATHE         FAIR      65  59  81 NE3       29.96F

......TENNESSEE......

CITY           SKY/WX    TMP DP  RH WIND       PRES   REMARKS
MEMPHIS        MOCLDY    64  60  87 E8        29.99F
NASHVILLE      MOCLDY    62  59  90 NE5       30.02F

......ARKANSAS.......

CITY           SKY/WX    TMP DP  RH WIND       PRES   REMARKS
FAYETTEVILLE   FAIR      59  58  96 CALM      29.99S
FT SMITH       FAIR      67  63  87 E6        29.96S
LITTLE ROCK    MOCLDY    65  61  87 CALM      30.00R

......OKLAHOMA.......

CITY           SKY/WX    TMP DP  RH WIND       PRES   REMARKS
TULSA          CLOUDY    65  62  90 CALM      29.94S
PONCA CITY     FAIR      65  59  81 E6        29.95S
MCALESTER      CLOUDY    67  62  84 SW13      29.99R
OKLAHOMA CITY  CLOUDY    65  59  81 SE7       29.95R

......IOWA............

CITY           SKY/WX    TMP DP  RH WIND       PRES   REMARKS
DES MOINES     CLOUDY    68  52  56 E5        30.00F
QUAD CITIES    FAIR      54  47  77 CALM      30.00S

......ILLINOIS........

CITY           SKY/WX    TMP DP  RH WIND       PRES   REMARKS
QUINCY         FAIR      64  52  64 S6        30.01S
CHICAGO        MOCLDY    61  46  57 CALM      30.00S



USA.gov is the U.S. government's official web portal to all federal, state and local government web resources and services.